Weather History for Middletown, OH

Change the Weather History Date:

Saturday, April 20, 2013

  Actual Average (KDAY) Record (KDAY)
Temperature  
Mean Temperature 42 °F 53 °F  
Max Temperature 48 °F 64 °F 85 °F (1915)
Min Temperature 35 °F 43 °F 21 °F (1897)
Degree Days  
Heating Degree Days 24 12  
Month to date heating degree days 307  
Since 1 July heating degree days 5346  
Cooling Degree Days 0 0  
Month to date cooling degree days 0  
Year to date cooling degree days 0  
Moisture  
Dew Point 32 °F    
Average Humidity 72    
Maximum Humidity 95    
Minimum Humidity 49    
Precipitation  
Precipitation 0.00 in 0.14 in 1.68 in (1920)
Month to date precipitation 2.67  
Year to date precipitation 10.96  
Snow  
Snow 0.00 in 0.00 in 0.40 in (2013)
Month to date snowfall 0.6  
Since 1 July snowfall 23.3  
Snow Depth -    
Sea Level Pressure  
Sea Level Pressure 30.21 in    
Wind  
Wind Speed 10 mph (WNW)    
Max Wind Speed 17 mph    
Max Gust Speed 22 mph    
Visibility 10 miles    
Events      
T = Trace of Precipitation, MM = Missing Value Source: NWS Daily Summary

Daily Weather History Graph

Daily Weather History Graph

Search for Another Location

Airport:

Trip Planner

Search our weather history database for the weather conditions in past years. The results will help you decide how hot, cold, wet, or windy it might be!

Date:

Astronomy

Apr. 20, 2013 Rise Set
Actual Time 6:52 AM EDT 8:20 PM EDT
Civil Twilight 6:24 AM EDT 8:48 PM EDT
Nautical Twilight 5:50 AM EDT 9:22 PM EDT
Astronomical Twilight 5:14 AM EDT 9:58 PM EDT
Moon 3:04 PM EDT (4/20) 3:40 AM EDT (4/20)
Length of Visible Light 14h 24m
Length of Day
13h 27m
Waxing Gibbous, 71% of the Moon is Illuminated
Apr 20
Waxing Gibbous
Apr 25
Full
May 2
Last Quarter
May 9
New
May 18
First Quarter

Hourly Weather History & Observations

Time (EDT) Temp. Windchill Dew Point Humidity Pressure Visibility Wind Dir Wind Speed Gust Speed Precip Events Conditions
12:15 AM 38.7 °F 30.9 °F 33.6 °F 82% 29.98 in 10.0 mi SW 12.7 mph - N/A   Clear
12:35 AM 38.1 °F 29.8 °F 33.4 °F 83% 29.99 in 10.0 mi SW 13.8 mph - N/A   Clear
12:55 AM 37.9 °F 29.6 °F 33.3 °F 83% 30.00 in 10.0 mi SW 13.8 mph 17.3 mph N/A   Clear
1:15 AM 38.8 °F 32.1 °F 34.3 °F 84% 30.00 in 10.0 mi SW 10.4 mph - N/A   Mostly Cloudy
1:35 AM 38.5 °F 29.2 °F 34.3 °F 85% 30.02 in 10.0 mi WSW 17.3 mph 21.9 mph N/A   Mostly Cloudy
1:55 AM 38.8 °F 31.2 °F 33.8 °F 82% 30.02 in 10.0 mi West 12.7 mph 20.7 mph N/A   Mostly Cloudy
2:15 AM 38.5 °F 32.1 °F 34.2 °F 84% 30.02 in 10.0 mi WSW 9.2 mph - N/A   Scattered Clouds
2:35 AM 37.6 °F 31.6 °F 34.0 °F 87% 30.02 in 10.0 mi WSW 8.1 mph - N/A   Clear
2:55 AM 37.6 °F 31.0 °F 35.2 °F 91% 30.02 in 10.0 mi SW 9.2 mph - N/A   Clear
3:15 AM 37.6 °F 31.0 °F 34.7 °F 89% 30.03 in 10.0 mi WSW 9.2 mph - N/A   Clear
3:35 AM 37.6 °F 31.0 °F 35.1 °F 91% 30.03 in 10.0 mi SW 9.2 mph - N/A   Clear
3:55 AM 37.6 °F 31.0 °F 34.9 °F 90% 30.04 in 10.0 mi WSW 9.2 mph - N/A   Scattered Clouds
4:15 AM 37.6 °F 31.6 °F 35.1 °F 91% 30.05 in 10.0 mi WSW 8.1 mph - N/A   Scattered Clouds
4:35 AM 37.6 °F 31.6 °F 35.2 °F 91% 30.05 in 10.0 mi SW 8.1 mph - N/A   Mostly Cloudy
4:55 AM 37.6 °F 31.6 °F 35.2 °F 91% 30.06 in 10.0 mi WSW 8.1 mph - N/A   Overcast
5:15 AM 35.6 °F 28.6 °F 34.0 °F 94% 30.06 in 10.0 mi SW 9.2 mph - N/A   Scattered Clouds
5:35 AM 35.1 °F 29.3 °F 33.8 °F 95% 30.07 in 10.0 mi WSW 6.9 mph - N/A   Scattered Clouds
5:55 AM 35.1 °F 29.3 °F 33.6 °F 94% 30.08 in 10.0 mi WSW 6.9 mph - N/A   Clear
6:15 AM 35.1 °F 30.1 °F 33.8 °F 95% 30.09 in 10.0 mi WSW 5.8 mph - N/A   Clear
6:35 AM 35.1 °F 29.3 °F 33.8 °F 95% 30.09 in 10.0 mi WSW 6.9 mph - N/A   Scattered Clouds
6:55 AM 35.1 °F 28.6 °F 32.5 °F 91% 30.10 in 10.0 mi West 8.1 mph - N/A   Mostly Cloudy
7:15 AM 35.6 °F 29.2 °F 32.2 °F 87% 30.11 in 10.0 mi West 8.1 mph - N/A   Mostly Cloudy
7:35 AM 36.5 °F 31.0 °F 32.9 °F 87% 30.13 in 10.0 mi West 6.9 mph - N/A   Scattered Clouds
7:55 AM 36.3 °F 30.8 °F 32.7 °F 87% 30.14 in 10.0 mi West 6.9 mph - N/A   Scattered Clouds
8:15 AM 37.6 °F 30.5 °F 33.6 °F 86% 30.15 in 10.0 mi West 10.4 mph - N/A   Clear
8:35 AM 37.6 °F 28.8 °F 32.0 °F 80% 30.16 in 10.0 mi West 15.0 mph 20.7 mph N/A   Clear
8:55 AM 37.6 °F 29.1 °F 31.6 °F 79% 30.17 in 10.0 mi West 13.8 mph 19.6 mph N/A   Mostly Cloudy
9:15 AM 37.9 °F 30.0 °F 30.7 °F 75% 30.18 in 10.0 mi West 12.7 mph 19.6 mph N/A   Scattered Clouds
9:35 AM 39.9 °F 33.4 °F 31.3 °F 71% 30.19 in 10.0 mi WNW 10.4 mph - N/A   Scattered Clouds
9:55 AM 38.8 °F 32.1 °F 31.1 °F 74% 30.20 in 10.0 mi WNW 10.4 mph 17.3 mph N/A   Mostly Cloudy
10:15 AM 40.5 °F 33.2 °F 30.2 °F 67% 30.21 in 10.0 mi WNW 12.7 mph 19.6 mph N/A   Scattered Clouds
10:35 AM 40.5 °F 33.6 °F 30.7 °F 68% 30.22 in 10.0 mi WNW 11.5 mph 19.6 mph N/A   Scattered Clouds
10:55 AM 40.3 °F 33.0 °F 28.8 °F 63% 30.23 in 10.0 mi NW 12.7 mph 19.6 mph N/A   Mostly Cloudy
11:15 AM 41.4 °F 35.2 °F 30.2 °F 65% 30.24 in 10.0 mi West 10.4 mph - N/A   Scattered Clouds
11:35 AM 41.7 °F 35.6 °F 30.9 °F 66% 30.24 in 10.0 mi West 10.4 mph - N/A   Scattered Clouds
11:55 AM 41.9 °F 35.4 °F 29.5 °F 61% 30.25 in 10.0 mi West 11.5 mph 18.4 mph N/A   Mostly Cloudy
12:15 PM 45.0 °F 40.1 °F 32.2 °F 61% 30.25 in 10.0 mi West 9.2 mph 21.9 mph N/A   Mostly Cloudy
12:35 PM 43.9 °F 37.5 °F 31.5 °F 62% 30.26 in 10.0 mi WNW 12.7 mph 16.1 mph N/A   Mostly Cloudy
12:55 PM 47.1 °F - 33.3 °F 59% 30.26 in 10.0 mi West 12.7 mph 19.6 mph N/A   Mostly Cloudy
1:15 PM 47.7 °F - 32.9 °F 57% 30.26 in 10.0 mi WNW 9.2 mph 19.6 mph N/A   Scattered Clouds
1:35 PM 46.2 °F 40.5 °F 32.9 °F 60% 30.26 in 10.0 mi WNW 12.7 mph - N/A   Scattered Clouds
1:55 PM 47.5 °F - 32.9 °F 57% 30.27 in 10.0 mi West 8.1 mph - N/A   Scattered Clouds
2:15 PM 47.7 °F - 32.9 °F 57% 30.27 in 10.0 mi West 10.4 mph - N/A   Scattered Clouds
2:35 PM 47.7 °F - 32.5 °F 56% 30.28 in 10.0 mi NW 13.8 mph 20.7 mph N/A   Scattered Clouds
2:55 PM 47.7 °F - 32.4 °F 55% 30.28 in 10.0 mi NW 8.1 mph - N/A   Mostly Cloudy
3:15 PM 47.7 °F - 32.2 °F 55% 30.28 in 10.0 mi NW 9.2 mph - N/A   Mostly Cloudy
3:35 PM 47.7 °F - 31.8 °F 54% 30.29 in 10.0 mi West 8.1 mph - N/A   Mostly Cloudy
3:55 PM 47.7 °F - 31.8 °F 54% 30.29 in 10.0 mi NW 11.5 mph - N/A   Mostly Cloudy
4:15 PM 47.7 °F - 31.1 °F 53% 30.29 in 10.0 mi NW 15.0 mph 18.4 mph N/A   Mostly Cloudy
4:35 PM 48.0 °F - 31.3 °F 52% 30.29 in 10.0 mi WNW 12.7 mph - N/A   Mostly Cloudy
4:55 PM 47.7 °F - 30.2 °F 51% 30.29 in 10.0 mi NW 13.8 mph 18.4 mph N/A   Scattered Clouds
5:15 PM 47.8 °F - 29.8 °F 50% 30.30 in 10.0 mi WNW 11.5 mph 17.3 mph N/A   Scattered Clouds
5:35 PM 47.8 °F - 31.1 °F 52% 30.30 in 10.0 mi NW 10.4 mph - N/A   Mostly Cloudy
5:55 PM 47.7 °F - 30.0 °F 50% 30.31 in 10.0 mi West 9.2 mph 18.4 mph N/A   Scattered Clouds
6:15 PM 47.7 °F - 29.5 °F 49% 30.31 in 10.0 mi WNW 8.1 mph - N/A   Scattered Clouds
6:35 PM 47.7 °F - 29.5 °F 49% 30.32 in 10.0 mi WNW 6.9 mph - N/A   Scattered Clouds
6:55 PM 47.7 °F - 30.0 °F 50% 30.32 in 10.0 mi NW 8.1 mph - N/A   Scattered Clouds
7:15 PM 47.7 °F - 29.8 °F 50% 30.32 in 10.0 mi North 9.2 mph - N/A   Scattered Clouds
7:35 PM 47.7 °F - 31.1 °F 53% 30.33 in 10.0 mi NNW 6.9 mph - N/A   Scattered Clouds
7:55 PM 45.3 °F 43.0 °F 29.5 °F 54% 30.33 in 10.0 mi North 4.6 mph - N/A   Clear
8:15 PM 43.2 °F 38.4 °F 28.8 °F 57% 30.34 in 10.0 mi North 8.1 mph - N/A   Clear
8:35 PM 41.5 °F 38.6 °F 28.4 °F 60% 30.35 in 10.0 mi North 4.6 mph - N/A   Clear
8:55 PM 40.6 °F 37.5 °F 28.9 °F 63% 30.36 in 10.0 mi North 4.6 mph - N/A   Clear
9:15 PM 40.1 °F 36.9 °F 29.7 °F 66% 30.37 in 10.0 mi North 4.6 mph - N/A   Clear
9:35 PM 39.2 °F 35.9 °F 30.2 °F 70% 30.38 in 10.0 mi North 4.6 mph - N/A   Clear
9:55 PM 38.8 °F 36.5 °F 30.7 °F 73% 30.39 in 10.0 mi North 3.5 mph - N/A   Clear
10:15 PM 38.8 °F 36.5 °F 30.9 °F 73% 30.40 in 10.0 mi North 3.5 mph - N/A   Clear
10:35 PM 37.6 °F 35.1 °F 30.9 °F 77% 30.40 in 10.0 mi NNE 3.5 mph - N/A   Clear
10:55 PM 37.6 °F 35.1 °F 33.8 °F 86% 30.41 in 10.0 mi North 3.5 mph - N/A   Clear
11:15 PM 35.1 °F 31.0 °F 31.3 °F 86% 30.41 in 10.0 mi North 4.6 mph - N/A   Clear
11:35 PM 35.1 °F 31.0 °F 30.7 °F 84% 30.42 in 10.0 mi North 4.6 mph - N/A   Clear
11:55 PM 35.1 °F - 30.4 °F 83% 30.43 in 10.0 mi Calm Calm - N/A   Clear